Content
SEND FEEDBACK

Daily
Averages
Monthly
Summary
United States of America

SPRAGUE, WEST VIRGINIA


Home > North America > United States > West Virginia
Elevation: 2371 feet     Latitude: 37 47N     Longitude: 081 11W

WEATHER
 
SELECT A DAY
Number of Records: 240,948;   Date Range: 1/1/95 - 7/23/14
 
SHARE

PRINT THIS DATA

[ ← Previous Day ]
WEATHER ALMANAC - FEBRUARY 13, 2013
[ Next Day → ]
[ °C ]   °F
Weather ElementAverageHighLow
Temperature36 °F39.9 °F (3:51 am)30 °F (10:51 pm)
Dewpoint30 °F37.4 °F (3:00 pm)19 °F (7:51 am)
Humidity81 %93 % (3:00 pm)43 % (7:51 am)
Barometer29.71 in29.91 in (11:51 pm)29.56 in (3:00 pm)
Wind Speed7.9 mph16.1 mph (10:51 am)
Wind Gust23 mph (10:51 am)
Weather ElementAverage
Visibility6.2 mi
Wind DirectionSSW (189.2 °)

Weather ElementTotal
Precipitation0.76 in
Heating Degree Days30.1 (Base 65)
Averaged from 37 records on February 13, 2013
WEATHER CONDITIONS BREAKOUT
WIND DIRECTION BREAKOUT
WEATHER BY HOUR - FEBRUARY 13, 2013
[ °C ]   °F
Local TimeTemperatureDewpointHumidityBarometerVisibilityWind DirectionWind SpeedGust SpeedPrecipitationEventsConditions
1:51 AM37.0 °F23.0 °F57 %29.87 in10.0 miNorth (10°)3.5 mphOvercast
2:51 AM37.9 °F24.1 °F57 %29.85 in10.0 miCalmOvercast
3:51 AM39.9 °F19.9 °F45 %29.82 in10.0 miSE (130°)4.6 mphOvercast
4:51 AM37.0 °F23.0 °F57 %29.80 in10.0 miCalmOvercast
5:51 AM36.0 °F23.0 °F59 %29.79 in10.0 miCalmOvercast
6:51 AM39.9 °F19.9 °F45 %29.77 in10.0 miSE (130°)9.2 mphOvercast
7:51 AM39.9 °F19.0 °F43 %29.73 in10.0 miENE (70°)4.6 mphOvercast
8:51 AM39.9 °F21.0 °F47 %29.70 in10.0 miESE (110°)9.2 mphOvercast
9:51 AM39.0 °F30.0 °F70 %29.71 in10.0 miSSE (150°)4.6 mph0.01 inRainLight Rain
10:51 AM37.9 °F34.0 °F86 %29.68 in6.0 miSE (130°)16.1 mph23.0 mph0.01 inRainLight Rain
10:58 AM37.4 °F33.8 °F87 %29.64 in6.0 miSE (130°)13.8 mph23.0 mph0.00 inRainLight Rain
11:07 AM37.4 °F33.8 °F87 %29.64 in6.0 miESE (120°)12.7 mph0.01 inRainLight Rain
11:51 AM39.0 °F36.0 °F89 %29.67 in7.0 miSE (130°)5.8 mph0.03 inRainLight Rain
12:24 PM39.2 °F35.6 °F87 %29.61 in4.0 miESE (110°)6.9 mph0.02 inRainLight Rain
12:51 PM39.0 °F36.0 °F89 %29.64 in4.0 miSSE (150°)5.8 mph0.05 inRainRain
1:27 PM39.2 °F35.6 °F87 %29.58 in6.0 miSE (140°)5.8 mph0.03 inRainLight Rain
1:51 PM39.9 °F36.0 °F86 %29.60 in9.0 miSE (130°)8.1 mph0.04 inRainLight Rain
2:51 PM39.9 °F37.0 °F89 %29.60 in3.0 miCalm0.05 inRainRain
3:00 PM39.2 °F37.4 °F93 %29.56 in1.8 miWSW (240°)3.5 mph0.03 inRainHeavy Rain
3:08 PM39.2 °F37.4 °F93 %29.56 in2.0 miVariable4.6 mph0.06 inRainRain
3:17 PM39.2 °F37.4 °F93 %29.57 in4.0 miNW (310°)11.5 mph16.1 mph0.08 inRainLight Rain
3:31 PM37.4 °F35.6 °F93 %29.59 in8.0 miWNW (290°)10.4 mph0.09 inRainLight Rain
3:49 PM33.8 °F32.0 °F93 %29.61 in1.8 miWNW (300°)15.0 mph0.10 inSnowLight Snow
3:51 PM34.0 °F32.0 °F92 %29.66 in1.8 miWNW (300°)15.0 mph0.10 inSnowLight Snow
4:20 PM33.8 °F30.2 °F87 %29.64 in1.0 miNW (310°)10.4 mph18.4 mph0.01 inSnowLight Snow
4:46 PM33.8 °F30.2 °F87 %29.66 in2.5 miNW (320°)9.2 mph0.02 inSnowLight Snow
4:51 PM33.1 °F30.9 °F92 %29.73 in3.0 miWNW (300°)10.4 mph0.02 inSnowLight Snow
4:59 PM33.8 °F30.2 °F87 %29.67 in2.5 miWNW (290°)11.5 mph18.4 mph0.00 inSnowLight Snow
5:30 PM32.0 °F30.2 °F93 %29.69 in3.0 miNW (320°)10.4 mph0.00 inSnowLight Snow
5:51 PM32.0 °F28.9 °F88 %29.77 in4.0 miNW (310°)9.2 mph0.00 inSnowLight Snow
6:51 PM30.9 °F28.9 °F92 %29.79 in10.0 miWNW (300°)10.4 mph0.00 inOvercast
7:51 PM30.9 °F28.0 °F89 %29.83 in9.0 miNW (310°)11.5 mph0.00 inOvercast
8:51 PM30.9 °F28.0 °F89 %29.85 in10.0 miWNW (300°)8.1 mph0.00 inOvercast
9:44 PM30.2 °F28.4 °F93 %29.81 in8.0 miWNW (290°)6.9 mph0.00 inOvercast
9:51 PM30.9 °F28.9 °F92 %29.88 in7.0 miWNW (290°)6.9 mph0.00 inOvercast
10:51 PM30.0 °F28.0 °F92 %29.90 in6.0 miWNW (290°)8.1 mph0.00 inOvercast
11:51 PM30.0 °F28.0 °F92 %29.91 in4.0 miWNW (290°)10.4 mphOvercast
Hourly data recorded from KBKW, located miles away from Sprague, West Virginia







STORIES FROM OUR PARTNERS